Retour au catalogue

YAOGAN 26

ActifMilitaireSSO
NORAD 40362·PAYLOAD·🇨🇳 China

Lancé Dec 27, 2014 depuis Taiyuan Satellite Launch Center

Loading…

Prochains Passages (prochaines 24 heures)

TLE

FraisSource: Space-Track

Époque: Sep 14, 2026, 14:27 UTC

1 40362U 14088A   26257.60218062  .00016877  00000-0  29471-3 0  9998
2 40362  97.0695 255.9558 0005906  82.5239 277.6684 15.50725591651542

Suivez YAOGAN 26 en temps réel avec AllMySat

Download on the App Store